| time (UTC) | temp F | wind direction | speed knots | gust knots | rain 1hr in | rain 24hr in | rain mn in | humidity % | barometer mb |
| 20260510225522 | 67 | 240 | 6.1 | 12.2 | 0.00 | 0.22 | 0.10 | 52 | 1022.4 |
| 20260510225020 | 66 | 360 | 1.7 | 9.6 | 0.00 | 0.22 | 0.10 | 52 | 1022.5 |
| 20260510224545 | 66 | 258 | 7.0 | 9.6 | 0.00 | 0.22 | 0.10 | 53 | 1022.5 |
| 20260510224020 | 65 | 232 | 2.6 | 7.8 | 0.00 | 0.22 | 0.10 | 54 | 1022.5 |
| 20260510223526 | 64 | 0 | 2.6 | 7.8 | 0.00 | 0.22 | 0.10 | 54 | 1022.5 |
| 20260510223039 | 64 | 285 | 2.6 | 7.8 | 0.00 | 0.22 | 0.10 | 55 | 1022.6 |
| 20260510222522 | 64 | 268 | 4.3 | 9.6 | 0.00 | 0.22 | 0.10 | 55 | 1022.5 |
| 20260510222020 | 65 | 258 | 6.1 | 9.6 | 0.00 | 0.22 | 0.10 | 55 | 1022.6 |
| 20260510221538 | 65 | 275 | 3.5 | 10.4 | 0.00 | 0.22 | 0.10 | 54 | 1022.6 |
| 20260510221022 | 66 | 284 | 6.1 | 10.4 | 0.00 | 0.22 | 0.10 | 52 | 1022.6 |
| 20260510220527 | 66 | 241 | 7.0 | 11.3 | 0.00 | 0.22 | 0.10 | 52 | 1022.6 |
| 20260510220041 | 66 | 232 | 7.0 | 18.2 | 0.00 | 0.22 | 0.10 | 53 | 1022.6 |
| 20260510215521 | 65 | 234 | 8.7 | 18.2 | 0.00 | 0.22 | 0.10 | 57 | 1022.7 |
| 20260510215021 | 64 | 147 | 1.7 | 9.6 | 0.00 | 0.22 | 0.10 | 58 | 1022.8 |
| 20260510214541 | 64 | 242 | 4.3 | 9.6 | 0.00 | 0.22 | 0.10 | 58 | 1022.8 |
| 20260510214024 | 64 | 153 | 3.5 | 8.7 | 0.00 | 0.22 | 0.10 | 59 | 1022.9 |
| 20260510213524 | 64 | 184 | 2.6 | 8.7 | 0.00 | 0.22 | 0.10 | 58 | 1022.9 |
| 20260510213045 | 64 | 235 | 6.1 | 10.4 | 0.00 | 0.22 | 0.10 | 60 | 1022.9 |
| 20260510212519 | 64 | 234 | 6.1 | 10.4 | 0.00 | 0.22 | 0.10 | 58 | 1022.9 |
| 20260510212021 | 64 | 200 | 6.1 | 9.6 | 0.00 | 0.22 | 0.10 | 59 | 1023.0 |
| 20260510211541 | 64 | 209 | 4.3 | 9.6 | 0.00 | 0.22 | 0.10 | 59 | 1023.0 |
| 20260510211022 | 64 | 229 | 3.5 | 12.2 | 0.00 | 0.22 | 0.10 | 60 | 1023.1 |
| 20260510210522 | 64 | 174 | 4.3 | 12.2 | 0.00 | 0.22 | 0.10 | 60 | 1023.0 |
| 20260510210040 | 64 | 207 | 4.3 | 12.2 | 0.00 | 0.22 | 0.10 | 59 | 1023.0 |
| 20260510205522 | 64 | 259 | 4.3 | 9.6 | 0.00 | 0.22 | 0.10 | 57 | 1023.2 |
| 20260510205022 | 64 | 229 | 4.3 | 10.4 | 0.00 | 0.22 | 0.10 | 58 | 1023.2 |
| 20260510204534 | 64 | 286 | 7.0 | 10.4 | 0.00 | 0.22 | 0.10 | 57 | 1023.3 |
| 20260510204021 | 64 | 207 | 6.1 | 10.4 | 0.00 | 0.22 | 0.10 | 60 | 1023.4 |
| 20260510203519 | 64 | 259 | 6.1 | 9.6 | 0.00 | 0.22 | 0.10 | 61 | 1023.4 |
| 20260510203041 | 63 | 207 | 4.3 | 7.8 | 0.00 | 0.22 | 0.10 | 61 | 1023.4 |
| 20260510202522 | 63 | 273 | 4.3 | 8.7 | 0.00 | 0.22 | 0.10 | 59 | 1023.4 |
| 20260510202105 | 63 | 176 | 1.7 | 15.6 | 0.00 | 0.22 | 0.10 | 61 | 1023.4 |
| 20260510201542 | 62 | 242 | 7.8 | 15.6 | 0.00 | 0.22 | 0.10 | 60 | 1023.5 |
| 20260510201022 | 63 | 244 | 6.1 | 10.4 | 0.00 | 0.22 | 0.10 | 61 | 1023.5 |
| 20260510200522 | 63 | 360 | 4.3 | 12.2 | 0.00 | 0.22 | 0.10 | 63 | 1023.6 |
| 20260510200039 | 62 | 243 | 5.2 | 12.2 | 0.00 | 0.22 | 0.10 | 63 | 1023.6 |
| 20260510195522 | 62 | 216 | 5.2 | 10.4 | 0.00 | 0.22 | 0.10 | 62 | 1023.6 |
| 20260510195021 | 62 | 255 | 4.3 | 7.8 | 0.00 | 0.22 | 0.10 | 67 | 1023.7 |
| 20260510194535 | 62 | 360 | 2.6 | 8.7 | 0.00 | 0.22 | 0.10 | 67 | 1023.8 |
| 20260510194022 | 62 | 176 | 5.2 | 9.6 | 0.00 | 0.22 | 0.10 | 66 | 1023.9 |
| 20260510193522 | 62 | 175 | 5.2 | 10.4 | 0.00 | 0.22 | 0.10 | 66 | 1023.9 |
| 20260510193036 | 62 | 244 | 7.0 | 12.2 | 0.00 | 0.22 | 0.10 | 68 | 1023.9 |
| 20260510192521 | 61 | 211 | 4.3 | 12.2 | 0.00 | 0.22 | 0.10 | 69 | 1023.9 |
| 20260510192024 | 61 | 153 | 6.1 | 18.2 | 0.00 | 0.22 | 0.10 | 68 | 1024.0 |
| 20260510191534 | 61 | 230 | 7.0 | 18.2 | 0.00 | 0.22 | 0.10 | 70 | 1024.0 |
| 20260510191019 | 60 | 195 | 6.1 | 10.4 | 0.00 | 0.22 | 0.10 | 67 | 1024.2 |
| 20260510190519 | 60 | 238 | 6.1 | 10.4 | 0.00 | 0.22 | 0.10 | 71 | 1024.2 |
| 20260510190046 | 60 | 200 | 4.3 | 10.4 | 0.00 | 0.22 | 0.10 | 70 | 1024.3 |
| 20260510185519 | 60 | 232 | 5.2 | 12.2 | 0.00 | 0.22 | 0.10 | 71 | 1024.3 |
| 20260510185022 | 59 | 267 | 4.3 | 12.2 | 0.00 | 0.22 | 0.10 | 71 | 1024.3 |
| 20260510184541 | 59 | 237 | 7.8 | 12.2 | 0.00 | 0.22 | 0.10 | 71 | 1024.5 |
| 20260510184019 | 59 | 229 | 5.2 | 9.6 | 0.00 | 0.22 | 0.10 | 74 | 1024.4 |
| 20260510183524 | 58 | 227 | 1.7 | 10.4 | 0.00 | 0.22 | 0.10 | 74 | 1024.5 |
| 20260510183043 | 58 | 153 | 5.2 | 10.4 | 0.00 | 0.22 | 0.10 | 74 | 1024.6 |
| 20260510182521 | 58 | 0 | 2.6 | 8.7 | 0.00 | 0.22 | 0.10 | 75 | 1024.6 |
| 20260510182021 | 58 | 180 | 3.5 | 9.6 | 0.00 | 0.22 | 0.10 | 75 | 1024.7 |
| 20260510181538 | 58 | 254 | 5.2 | 9.6 | 0.00 | 0.22 | 0.10 | 77 | 1024.6 |
| 20260510181022 | 58 | 158 | 5.2 | 9.6 | 0.00 | 0.22 | 0.10 | 78 | 1024.7 |
| 20260510180520 | 57 | 203 | 3.5 | 7.8 | 0.00 | 0.22 | 0.10 | 78 | 1024.7 |
| 20260510180033 | 57 | 194 | 1.7 | 7.0 | 0.00 | 0.22 | 0.10 | 77 | 1024.9 |
| 20260510175521 | 56 | 224 | 2.6 | 7.0 | 0.00 | 0.22 | 0.10 | 78 | 1025.0 |
| 20260510175022 | 56 | 200 | 3.5 | 5.2 | 0.00 | 0.22 | 0.10 | 78 | 1025.2 |
| 20260510174544 | 56 | 209 | 1.7 | 5.2 | 0.00 | 0.22 | 0.10 | 80 | 1025.3 |
| 20260510174023 | 56 | 111 | 0.9 | 6.1 | 0.00 | 0.22 | 0.10 | 79 | 1025.2 |
| 20260510173519 | 56 | 165 | 2.6 | 6.1 | 0.00 | 0.22 | 0.10 | 79 | 1025.2 |
| 20260510173044 | 56 | 163 | 0.0 | 4.3 | 0.00 | 0.22 | 0.10 | 81 | 1025.2 |
| 20260510172519 | 55 | 138 | 2.6 | 4.3 | 0.00 | 0.22 | 0.10 | 80 | 1025.3 |
| 20260510172023 | 55 | 105 | 1.7 | 4.3 | 0.00 | 0.22 | 0.10 | 81 | 1025.2 |
| 20260510171539 | 55 | 61 | 1.7 | 4.3 | 0.00 | 0.22 | 0.10 | 82 | 1025.2 |
| 20260510171021 | 55 | 269 | 1.7 | 8.7 | 0.00 | 0.22 | 0.10 | 81 | 1025.2 |
| 20260510170522 | 55 | 193 | 2.6 | 9.6 | 0.00 | 0.22 | 0.10 | 84 | 1025.2 |
| 20260510170048 | 55 | 154 | 6.1 | 10.4 | 0.00 | 0.22 | 0.10 | 86 | 1025.2 |
| 20260510165522 | 54 | 126 | 3.5 | 13.9 | 0.00 | 0.22 | 0.10 | 86 | 1025.1 |
| 20260510165023 | 54 | 148 | 2.6 | 13.9 | 0.00 | 0.22 | 0.10 | 87 | 1025.2 |
| 20260510164541 | 53 | 175 | 2.6 | 7.8 | 0.00 | 0.22 | 0.10 | 88 | 1025.1 |
| 20260510164024 | 52 | 181 | 4.3 | 7.8 | 0.00 | 0.22 | 0.10 | 88 | 1024.9 |
| 20260510163526 | 52 | 180 | 4.3 | 7.8 | 0.00 | 0.22 | 0.10 | 89 | 1024.9 |
| 20260510163041 | 52 | 120 | 1.7 | 6.1 | 0.00 | 0.22 | 0.10 | 90 | 1025.0 |
| 20260510162523 | 52 | 127 | 2.6 | 6.1 | 0.00 | 0.22 | 0.10 | 91 | 1024.9 |
| 20260510162022 | 51 | 119 | 2.6 | 5.2 | 0.00 | 0.22 | 0.10 | 91 | 1024.9 |
| 20260510161542 | 51 | 121 | 1.7 | 5.2 | 0.00 | 0.22 | 0.10 | 91 | 1024.8 |
| 20260510161023 | 51 | 139 | 0.9 | 5.2 | 0.00 | 0.22 | 0.10 | 91 | 1024.9 |
| 20260510160523 | 50 | 127 | 2.6 | 6.1 | 0.00 | 0.22 | 0.10 | 91 | 1024.9 |
| 20260510160042 | 50 | 159 | 1.7 | 6.1 | 0.00 | 0.22 | 0.10 | 91 | 1024.9 |
| 20260510155526 | 50 | 84 | 3.5 | 6.1 | 0.01 | 0.22 | 0.10 | 93 | 1025.0 |
| 20260510155022 | 50 | 66 | 0.9 | 5.2 | 0.01 | 0.22 | 0.10 | 93 | 1024.9 |
| 20260510154540 | 50 | 118 | 2.6 | 5.2 | 0.01 | 0.22 | 0.10 | 93 | 1025.1 |
| 20260510154024 | 50 | 86 | 2.6 | 6.1 | 0.03 | 0.22 | 0.10 | 93 | 1024.9 |
| 20260510153523 | 49 | 101 | 2.6 | 6.1 | 0.04 | 0.22 | 0.10 | 93 | 1025.0 |
| 20260510153037 | 49 | 56 | 3.5 | 7.8 | 0.06 | 0.22 | 0.10 | 93 | 1025.0 |
| 20260510152524 | 49 | 65 | 4.3 | 7.8 | 0.07 | 0.22 | 0.10 | 93 | 1025.0 |
| 20260510152021 | 48 | 69 | 4.3 | 7.0 | 0.07 | 0.22 | 0.10 | 94 | 1024.8 |
| 20260510151544 | 48 | 86 | 1.7 | 5.2 | 0.08 | 0.22 | 0.10 | 93 | 1024.7 |
| 20260510151023 | 48 | 86 | 1.7 | 5.2 | 0.08 | 0.22 | 0.10 | 93 | 1024.7 |
| 20260510150522 | 48 | 128 | 1.7 | 7.0 | 0.08 | 0.22 | 0.10 | 93 | 1024.6 |
| 20260510150051 | 48 | 133 | 3.5 | 7.8 | 0.08 | 0.22 | 0.10 | 92 | 1024.4 |
| 20260510145523 | 48 | 138 | 5.2 | 7.8 | 0.07 | 0.21 | 0.09 | 93 | 1024.3 |
| 20260510145025 | 48 | 140 | 6.1 | 7.8 | 0.07 | 0.21 | 0.09 | 93 | 1024.3 |
| 20260510144557 | 48 | 155 | 4.3 | 6.1 | 0.07 | 0.21 | 0.09 | 93 | 1024.4 |
| 20260510144021 | 49 | 160 | 1.7 | 5.2 | 0.05 | 0.19 | 0.07 | 93 | 1024.6 |
| 20260510143523 | 49 | 121 | 0.0 | 2.6 | 0.04 | 0.18 | 0.06 | 93 | 1024.6 |
| 20260510143045 | 49 | 38 | 0.0 | 3.5 | 0.02 | 0.16 | 0.04 | 93 | 1024.6 |
| 20260510142522 | 49 | 38 | 0.0 | 5.2 | 0.01 | 0.15 | 0.03 | 93 | 1024.5 |
| 20260510142022 | 49 | 38 | 2.6 | 5.2 | 0.01 | 0.15 | 0.03 | 93 | 1024.4 |
| 20260510141546 | 49 | 57 | 2.6 | 7.0 | 0.00 | 0.14 | 0.02 | 93 | 1024.3 |
| 20260510141024 | 49 | 34 | 1.7 | 7.0 | 0.00 | 0.14 | 0.02 | 93 | 1024.4 |
| 20260510140521 | 49 | 24 | 2.6 | 7.0 | 0.00 | 0.14 | 0.02 | 93 | 1024.5 |
| 20260510140048 | 49 | 28 | 2.6 | 6.1 | 0.00 | 0.14 | 0.02 | 93 | 1024.5 |
| 20260510135522 | 49 | 16 | 3.5 | 6.1 | 0.00 | 0.14 | 0.02 | 93 | 1024.6 |
| 20260510135022 | 49 | 18 | 2.6 | 4.3 | 0.00 | 0.14 | 0.02 | 93 | 1024.6 |
| 20260510134539 | 49 | 348 | 1.7 | 5.2 | 0.00 | 0.14 | 0.02 | 93 | 1024.6 |
| 20260510134022 | 49 | 332 | 1.7 | 7.0 | 0.00 | 0.14 | 0.02 | 93 | 1024.6 |
| 20260510133522 | 49 | 9 | 1.7 | 7.0 | 0.00 | 0.14 | 0.02 | 93 | 1024.6 |
| 20260510133034 | 49 | 352 | 2.6 | 7.0 | 0.00 | 0.14 | 0.02 | 93 | 1024.5 |
| 20260510132519 | 49 | 352 | 2.6 | 8.7 | 0.00 | 0.14 | 0.02 | 93 | 1024.5 |
| 20260510132021 | 49 | 346 | 3.5 | 8.7 | 0.00 | 0.14 | 0.02 | 93 | 1024.4 |
| 20260510131535 | 49 | 18 | 3.5 | 7.8 | 0.00 | 0.14 | 0.02 | 93 | 1024.4 |
| 20260510131021 | 49 | 313 | 3.5 | 7.8 | 0.00 | 0.14 | 0.02 | 93 | 1024.3 |
| 20260510130521 | 49 | 352 | 2.6 | 7.0 | 0.00 | 0.14 | 0.02 | 93 | 1024.3 |
| 20260510130041 | 49 | 352 | 3.5 | 7.0 | 0.00 | 0.14 | 0.02 | 93 | 1024.2 |
| 20260510125522 | 49 | 321 | 3.5 | 7.0 | 0.00 | 0.14 | 0.02 | 93 | 1024.1 |
| 20260510125023 | 49 | 336 | 3.5 | 7.8 | 0.00 | 0.14 | 0.02 | 93 | 1024.1 |
| 20260510124544 | 49 | 328 | 3.5 | 7.8 | 0.00 | 0.14 | 0.02 | 93 | 1023.9 |
| 20260510124021 | 49 | 342 | 4.3 | 7.8 | 0.00 | 0.14 | 0.02 | 93 | 1023.8 |
| 20260510123522 | 49 | 352 | 3.5 | 7.8 | 0.00 | 0.14 | 0.02 | 93 | 1023.7 |
| 20260510123039 | 49 | 342 | 3.5 | 7.8 | 0.00 | 0.14 | 0.02 | 93 | 1023.7 |
| 20260510122525 | 49 | 336 | 3.5 | 7.8 | 0.00 | 0.14 | 0.02 | 93 | 1023.6 |
| 20260510122022 | 49 | 325 | 4.3 | 7.8 | 0.00 | 0.14 | 0.02 | 93 | 1023.5 |
| 20260510121537 | 49 | 344 | 3.5 | 7.8 | 0.00 | 0.14 | 0.02 | 93 | 1023.3 |
| 20260510121022 | 49 | 27 | 2.6 | 7.0 | 0.00 | 0.14 | 0.02 | 93 | 1023.2 |
| 20260510120522 | 48 | 19 | 1.7 | 7.8 | 0.00 | 0.14 | 0.02 | 93 | 1023.0 |
| 20260510120039 | 48 | 15 | 2.6 | 8.7 | 0.00 | 0.14 | 0.02 | 93 | 1023.1 |
| 20260510115519 | 49 | 5 | 3.5 | 9.6 | 0.00 | 0.14 | 0.02 | 93 | 1023.2 |
| 20260510115023 | 49 | 329 | 5.2 | 9.6 | 0.00 | 0.14 | 0.02 | 93 | 1023.1 |
| 20260510114541 | 49 | 346 | 5.2 | 9.6 | 0.00 | 0.14 | 0.02 | 93 | 1022.9 |
| 20260510114022 | 49 | 338 | 3.5 | 7.8 | 0.00 | 0.14 | 0.02 | 93 | 1022.8 |
| 20260510113518 | 49 | 9 | 3.5 | 8.7 | 0.00 | 0.14 | 0.02 | 93 | 1022.7 |
| 20260510113039 | 49 | 346 | 4.3 | 9.6 | 0.00 | 0.14 | 0.02 | 93 | 1022.7 |
| 20260510112519 | 49 | 342 | 4.3 | 9.6 | 0.00 | 0.14 | 0.02 | 93 | 1022.6 |
| 20260510112019 | 49 | 350 | 4.3 | 7.8 | 0.00 | 0.14 | 0.02 | 93 | 1022.7 |
| 20260510111552 | 49 | 312 | 2.6 | 7.8 | 0.00 | 0.14 | 0.02 | 93 | 1022.7 |
| 20260510111021 | 49 | 327 | 3.5 | 7.0 | 0.00 | 0.14 | 0.02 | 93 | 1022.9 |
| 20260510110520 | 49 | 315 | 3.5 | 7.0 | 0.00 | 0.14 | 0.02 | 93 | 1022.9 |
| 20260510110039 | 49 | 304 | 4.3 | 7.8 | 0.00 | 0.14 | 0.02 | 93 | 1023.0 |
| 20260510105523 | 49 | 296 | 4.3 | 7.8 | 0.00 | 0.14 | 0.02 | 93 | 1022.9 |
| 20260510105022 | 49 | 284 | 5.2 | 7.8 | 0.00 | 0.14 | 0.02 | 93 | 1022.9 |
| 20260510104545 | 49 | 275 | 5.2 | 7.0 | 0.00 | 0.14 | 0.02 | 93 | 1022.9 |
| 20260510104024 | 49 | 296 | 5.2 | 7.0 | 0.00 | 0.14 | 0.02 | 92 | 1022.9 |
| 20260510103521 | 49 | 302 | 3.5 | 7.0 | 0.00 | 0.14 | 0.02 | 92 | 1022.8 |
| 20260510103044 | 49 | 292 | 4.3 | 7.0 | 0.00 | 0.14 | 0.02 | 92 | 1022.7 |
| 20260510102521 | 49 | 300 | 2.6 | 7.0 | 0.00 | 0.14 | 0.02 | 92 | 1022.6 |
| 20260510102021 | 49 | 301 | 3.5 | 7.8 | 0.00 | 0.14 | 0.02 | 92 | 1022.7 |
| 20260510101542 | 49 | 317 | 3.5 | 7.8 | 0.00 | 0.14 | 0.02 | 92 | 1022.7 |
| 20260510101021 | 49 | 319 | 4.3 | 7.8 | 0.00 | 0.14 | 0.02 | 92 | 1022.7 |
| 20260510100523 | 49 | 321 | 1.7 | 7.0 | 0.00 | 0.14 | 0.02 | 92 | 1022.6 |
| 20260510100040 | 49 | 328 | 2.6 | 7.0 | 0.00 | 0.14 | 0.02 | 92 | 1022.5 |
| 20260510095522 | 49 | 343 | 3.5 | 5.2 | 0.00 | 0.14 | 0.02 | 92 | 1022.3 |
| 20260510095020 | 49 | 352 | 1.7 | 5.2 | 0.00 | 0.14 | 0.02 | 92 | 1022.0 |
| 20260510094542 | 49 | 329 | 1.7 | 5.2 | 0.00 | 0.14 | 0.02 | 92 | 1022.1 |
| 20260510094020 | 48 | 338 | 3.5 | 6.1 | 0.00 | 0.14 | 0.02 | 91 | 1022.2 |
| 20260510093522 | 48 | 312 | 2.6 | 6.1 | 0.00 | 0.14 | 0.02 | 91 | 1022.1 |
| 20260510093038 | 48 | 346 | 2.6 | 5.2 | 0.00 | 0.14 | 0.02 | 91 | 1021.9 |
| 20260510092522 | 48 | 346 | 2.6 | 5.2 | 0.00 | 0.14 | 0.02 | 91 | 1021.9 |
| 20260510092021 | 48 | 311 | 2.6 | 5.2 | 0.00 | 0.14 | 0.02 | 91 | 1021.9 |
| 20260510091535 | 48 | 334 | 1.7 | 7.8 | 0.00 | 0.14 | 0.02 | 91 | 1021.7 |
| 20260510091021 | 49 | 319 | 2.6 | 7.8 | 0.00 | 0.14 | 0.02 | 91 | 1021.7 |
| 20260510090524 | 49 | 341 | 4.3 | 7.8 | 0.00 | 0.14 | 0.02 | 91 | 1021.5 |
| 20260510090042 | 49 | 330 | 2.6 | 4.3 | 0.00 | 0.14 | 0.02 | 91 | 1021.4 |
| 20260510085522 | 49 | 71 | 0.9 | 2.6 | 0.00 | 0.14 | 0.02 | 91 | 1021.2 |
| 20260510085021 | 49 | 71 | 0.9 | 2.6 | 0.00 | 0.14 | 0.02 | 91 | 1021.1 |
| 20260510084544 | 49 | 71 | 0.9 | 3.5 | 0.00 | 0.14 | 0.02 | 91 | 1021.0 |
| 20260510084023 | 49 | 71 | 0.9 | 6.1 | 0.01 | 0.14 | 0.02 | 91 | 1020.9 |
| 20260510083523 | 49 | 71 | 2.6 | 7.0 | 0.01 | 0.14 | 0.02 | 91 | 1020.7 |
| 20260510083039 | 49 | 77 | 4.3 | 7.0 | 0.01 | 0.14 | 0.02 | 91 | 1020.6 |
| 20260510082522 | 49 | 86 | 4.3 | 6.1 | 0.01 | 0.14 | 0.02 | 91 | 1020.5 |
| 20260510082023 | 49 | 84 | 2.6 | 7.0 | 0.01 | 0.14 | 0.02 | 90 | 1020.5 |
| 20260510081542 | 49 | 88 | 2.6 | 7.0 | 0.01 | 0.14 | 0.02 | 90 | 1020.4 |
| 20260510081021 | 49 | 90 | 4.3 | 7.0 | 0.02 | 0.14 | 0.02 | 90 | 1020.3 |
| 20260510080521 | 50 | 98 | 2.6 | 7.0 | 0.02 | 0.14 | 0.02 | 90 | 1020.3 |
| 20260510080036 | 50 | 62 | 1.7 | 8.7 | 0.02 | 0.14 | 0.02 | 90 | 1020.4 |
| 20260510075523 | 50 | 31 | 4.3 | 8.7 | 0.02 | 0.14 | 0.02 | 90 | 1020.6 |
| 20260510075047 | 50 | 51 | 6.1 | 8.7 | 0.02 | 0.14 | 0.02 | 90 | 1020.4 |
| 20260510074542 | 50 | 69 | 6.1 | 8.7 | 0.02 | 0.14 | 0.02 | 90 | 1020.2 |
| 20260510074023 | 50 | 62 | 5.2 | 9.6 | 0.01 | 0.13 | 0.01 | 90 | 1020.3 |
| 20260510073525 | 50 | 63 | 7.0 | 9.6 | 0.01 | 0.13 | 0.01 | 90 | 1020.3 |
| 20260510073041 | 50 | 56 | 6.1 | 9.6 | 0.01 | 0.13 | 0.01 | 90 | 1020.4 |
| 20260510072522 | 50 | 40 | 4.3 | 9.6 | 0.01 | 0.13 | 0.01 | 89 | 1020.4 |
| 20260510072024 | 50 | 58 | 6.1 | 11.3 | 0.01 | 0.13 | 0.01 | 89 | 1020.4 |
| 20260510071542 | 50 | 48 | 7.8 | 11.3 | 0.01 | 0.13 | 0.01 | 89 | 1020.1 |
| 20260510071024 | 50 | 50 | 6.1 | 10.4 | 0.00 | 0.12 | 0.00 | 90 | 1020.2 |
| 20260510070527 | 50 | 22 | 1.7 | 3.5 | 0.00 | 0.12 | 0.00 | 89 | 1020.8 |
| 20260510070041 | 51 | 348 | 1.7 | 5.2 | 0.00 | 0.12 | 0.00 | 89 | 1021.1 |
| 20260510065521 | 51 | 283 | 1.7 | 7.8 | 0.00 | 0.12 | 0.00 | 89 | 1021.0 |
| 20260510065023 | 50 | 266 | 4.3 | 7.8 | 0.00 | 0.12 | 0.00 | 89 | 1021.0 |
| 20260510064538 | 50 | 242 | 5.2 | 7.8 | 0.00 | 0.12 | 0.00 | 89 | 1020.9 |
| 20260510064022 | 50 | 228 | 3.5 | 5.2 | 0.00 | 0.12 | 0.00 | 88 | 1020.8 |
| 20260510063522 | 50 | 0 | 0.0 | 2.6 | 0.00 | 0.12 | 0.00 | 88 | 1020.7 |
| 20260510063040 | 50 | 27 | 0.9 | 3.5 | 0.00 | 0.12 | 0.00 | 88 | 1020.6 |
| 20260510062520 | 51 | 24 | 0.9 | 5.2 | 0.00 | 0.12 | 0.00 | 88 | 1020.5 |
| 20260510062023 | 51 | 9 | 1.7 | 8.7 | 0.00 | 0.12 | 0.00 | 88 | 1020.4 |
| 20260510061542 | 51 | 36 | 3.5 | 8.7 | 0.00 | 0.12 | 0.00 | 88 | 1020.5 |
| 20260510061024 | 51 | 5 | 5.2 | 8.7 | 0.00 | 0.12 | 0.00 | 88 | 1020.6 |
| 20260510060525 | 51 | 5 | 4.3 | 8.7 | 0.00 | 0.12 | 0.00 | 88 | 1020.5 |
| 20260510060051 | 51 | 26 | 5.2 | 8.7 | 0.00 | 0.12 | 0.00 | 88 | 1020.2 |
| 20260510055521 | 51 | 317 | 3.5 | 8.7 | 0.00 | 0.12 | 0.12 | 88 | 1020.2 |
| 20260510055024 | 50 | 46 | 4.3 | 9.6 | 0.00 | 0.12 | 0.12 | 87 | 1019.9 |
| 20260510054544 | 50 | 100 | 6.1 | 13.0 | 0.00 | 0.12 | 0.12 | 87 | 1019.6 |
| 20260510054021 | 50 | 95 | 8.7 | 13.0 | 0.00 | 0.12 | 0.12 | 87 | 1019.6 |
| 20260510053523 | 50 | 107 | 7.8 | 14.8 | 0.00 | 0.12 | 0.12 | 87 | 1019.4 |
| 20260510053038 | 50 | 101 | 10.4 | 14.8 | 0.00 | 0.12 | 0.12 | 87 | 1019.4 |
| 20260510052522 | 50 | 103 | 9.6 | 17.4 | 0.00 | 0.12 | 0.12 | 87 | 1019.2 |
| 20260510052023 | 51 | 81 | 12.2 | 17.4 | 0.00 | 0.12 | 0.12 | 87 | 1019.4 |
| 20260510051552 | 51 | 101 | 11.3 | 15.6 | 0.00 | 0.12 | 0.12 | 87 | 1019.4 |
| 20260510051024 | 51 | 97 | 8.7 | 13.9 | 0.00 | 0.12 | 0.12 | 87 | 1019.6 |
| 20260510050522 | 51 | 84 | 10.4 | 13.9 | 0.00 | 0.12 | 0.12 | 87 | 1019.9 |
| 20260510050036 | 51 | 102 | 9.6 | 13.9 | 0.01 | 0.12 | 0.12 | 87 | 1019.7 |
| 20260510045526 | 51 | 74 | 10.4 | 15.6 | 0.02 | 0.12 | 0.12 | 87 | 1019.6 |
| 20260510045023 | 51 | 98 | 12.2 | 15.6 | 0.03 | 0.12 | 0.12 | 87 | 1019.4 |
| 20260510044543 | 51 | 65 | 7.8 | 13.0 | 0.04 | 0.12 | 0.12 | 87 | 1019.4 |
| 20260510044024 | 51 | 77 | 8.7 | 16.5 | 0.05 | 0.12 | 0.12 | 87 | 1019.5 |
| 20260510043523 | 51 | 55 | 12.2 | 20.0 | 0.06 | 0.12 | 0.12 | 87 | 1019.4 |
| 20260510043104 | 51 | 74 | 13.9 | 21.7 | 0.10 | 0.12 | 0.12 | 86 | 1019.1 |
| 20260510042523 | 52 | 85 | 14.8 | 22.6 | 0.12 | 0.12 | 0.12 | 86 | 1018.8 |
| 20260510042022 | 52 | 76 | 16.5 | 23.5 | 0.12 | 0.12 | 0.12 | 86 | 1018.6 |
| 20260510041549 | 52 | 75 | 18.2 | 24.3 | 0.12 | 0.12 | 0.12 | 86 | 1018.4 |
| 20260510041023 | 52 | 61 | 19.1 | 24.3 | 0.12 | 0.12 | 0.12 | 85 | 1018.5 |
| 20260510040523 | 53 | 55 | 15.6 | 22.6 | 0.12 | 0.12 | 0.12 | 84 | 1018.7 |
| 20260510040041 | 53 | 56 | 14.8 | 22.6 | 0.11 | 0.11 | 0.11 | 84 | 1018.8 |
| 20260510035523 | 53 | 11 | 12.2 | 22.6 | 0.10 | 0.10 | 0.10 | 83 | 1019.5 |
| 20260510035024 | 54 | 18 | 13.9 | 22.6 | 0.09 | 0.09 | 0.09 | 82 | 1019.7 |
| 20260510034545 | 54 | 32 | 13.0 | 20.0 | 0.08 | 0.08 | 0.08 | 79 | 1019.8 |
| 20260510034023 | 55 | 35 | 10.4 | 20.0 | 0.07 | 0.07 | 0.07 | 77 | 1020.4 |
| 20260510033522 | 56 | 28 | 11.3 | 21.7 | 0.06 | 0.06 | 0.06 | 73 | 1020.6 |
| 20260510033041 | 56 | 33 | 9.6 | 21.7 | 0.02 | 0.02 | 0.02 | 72 | 1020.8 |
| 20260510032527 | 57 | 342 | 13.9 | 22.6 | 0.00 | 0.00 | 0.00 | 71 | 1020.7 |
| 20260510032022 | 57 | 343 | 13.9 | 22.6 | 0.00 | 0.00 | 0.00 | 69 | 1020.5 |
| 20260510031613 | 57 | 360 | 15.6 | 22.6 | 0.00 | 0.00 | 0.00 | 68 | 1020.2 |
| 20260510031022 | 58 | 314 | 10.4 | 23.5 | 0.00 | 0.00 | 0.00 | 64 | 1019.1 |
| 20260510030522 | 58 | 24 | 8.7 | 26.9 | 0.00 | 0.00 | 0.00 | 61 | 1017.5 |
| 20260510030041 | 59 | 63 | 19.1 | 26.9 | 0.00 | 0.00 | 0.00 | 60 | 1016.3 |
| 20260510025523 | 59 | 69 | 19.1 | 26.1 | 0.00 | 0.00 | 0.00 | 57 | 1015.2 |
| 20260510025025 | 59 | 77 | 17.4 | 22.6 | 0.00 | 0.00 | 0.00 | 57 | 1015.0 |
| 20260510024545 | 59 | 63 | 14.8 | 20.9 | 0.00 | 0.00 | 0.00 | 58 | 1014.7 |
| 20260510024023 | 58 | 77 | 13.9 | 18.2 | 0.00 | 0.00 | 0.00 | 59 | 1014.2 |
| 20260510023522 | 58 | 81 | 13.9 | 18.2 | 0.00 | 0.00 | 0.00 | 59 | 1013.8 |
| 20260510023047 | 58 | 80 | 11.3 | 14.8 | 0.00 | 0.00 | 0.00 | 60 | 1013.7 |
| 20260510022522 | 58 | 93 | 9.6 | 12.2 | 0.00 | 0.00 | 0.00 | 59 | 1013.8 |
| 20260510022021 | 59 | 88 | 9.6 | 12.2 | 0.00 | 0.00 | 0.00 | 59 | 1013.7 |
| 20260510021543 | 59 | 84 | 8.7 | 11.3 | 0.00 | 0.00 | 0.00 | 58 | 1013.7 |
| 20260510021022 | 60 | 103 | 7.8 | 12.2 | 0.00 | 0.00 | 0.00 | 57 | 1013.7 |
| 20260510020521 | 60 | 85 | 8.7 | 12.2 | 0.00 | 0.00 | 0.00 | 57 | 1013.5 |
| 20260510020038 | 61 | 90 | 8.7 | 13.0 | 0.00 | 0.00 | 0.00 | 56 | 1013.4 |
| 20260510015523 | 61 | 96 | 9.6 | 13.0 | 0.00 | 0.00 | 0.00 | 55 | 1013.5 |
| 20260510015023 | 62 | 96 | 9.6 | 12.2 | 0.00 | 0.00 | 0.00 | 55 | 1013.5 |
| 20260510014544 | 62 | 89 | 8.7 | 12.2 | 0.00 | 0.00 | 0.00 | 54 | 1013.4 |
| 20260510014023 | 63 | 107 | 8.7 | 12.2 | 0.00 | 0.00 | 0.00 | 54 | 1013.2 |
| 20260510013524 | 64 | 94 | 8.7 | 13.9 | 0.00 | 0.00 | 0.00 | 53 | 1013.1 |
| 20260510013038 | 64 | 90 | 8.7 | 13.9 | 0.00 | 0.00 | 0.00 | 52 | 1013.1 |
| 20260510012525 | 65 | 94 | 10.4 | 15.6 | 0.00 | 0.00 | 0.00 | 51 | 1013.0 |
| 20260510012022 | 66 | 82 | 11.3 | 15.6 | 0.00 | 0.00 | 0.00 | 50 | 1012.8 |
| 20260510011554 | 66 | 80 | 11.3 | 17.4 | 0.00 | 0.00 | 0.00 | 50 | 1012.7 |
| 20260510011025 | 67 | 74 | 12.2 | 17.4 | 0.00 | 0.00 | 0.00 | 50 | 1012.5 |
| 20260510010523 | 67 | 93 | 10.4 | 16.5 | 0.00 | 0.00 | 0.00 | 51 | 1012.4 |
| 20260510010055 | 68 | 81 | 12.2 | 17.4 | 0.00 | 0.00 | 0.00 | 49 | 1012.3 |
| 20260510005522 | 68 | 83 | 12.2 | 17.4 | 0.00 | 0.00 | 0.00 | 47 | 1012.1 |
| 20260510005022 | 69 | 81 | 8.7 | 13.0 | 0.00 | 0.00 | 0.00 | 47 | 1012.1 |
| 20260510004541 | 70 | 91 | 7.8 | 12.2 | 0.00 | 0.00 | 0.00 | 46 | 1011.8 |
| 20260510004021 | 70 | 92 | 7.8 | 13.9 | 0.00 | 0.00 | 0.00 | 45 | 1011.6 |
| 20260510003521 | 70 | 84 | 10.4 | 15.6 | 0.00 | 0.00 | 0.00 | 44 | 1011.6 |
| 20260510003039 | 71 | 86 | 10.4 | 16.5 | 0.00 | 0.00 | 0.00 | 45 | 1011.4 |
| 20260510002523 | 71 | 80 | 13.0 | 19.1 | 0.00 | 0.00 | 0.00 | 44 | 1011.4 |
| 20260510002027 | 71 | 92 | 13.0 | 24.3 | 0.00 | 0.00 | 0.00 | 45 | 1011.4 |
| 20260510001545 | 71 | 82 | 14.8 | 27.8 | 0.00 | 0.00 | 0.00 | 44 | 1011.3 |
| 20260510001023 | 71 | 80 | 17.4 | 29.5 | 0.00 | 0.00 | 0.00 | 43 | 1011.3 |
| 20260510000524 | 71 | 89 | 22.6 | 29.5 | 0.00 | 0.00 | 0.00 | 42 | 1011.2 |
| 20260510000049 | 72 | 75 | 19.1 | 29.5 | 0.00 | 0.00 | 0.00 | 41 | 1011.1 |
| 20260509235522 | 73 | 53 | 21.7 | 29.5 | 0.00 | 0.00 | 0.00 | 40 | 1011.2 |
| 20260509235022 | 75 | 83 | 18.2 | 29.5 | 0.00 | 0.00 | 0.00 | 37 | 1011.2 |
| 20260509234541 | 78 | 38 | 15.6 | 26.1 | 0.00 | 0.00 | 0.00 | 35 | 1011.3 |
| 20260509234024 | 79 | 57 | 7.8 | 16.5 | 0.00 | 0.00 | 0.00 | 32 | 1011.2 |
| 20260509233520 | 79 | 22 | 7.0 | 12.2 | 0.00 | 0.00 | 0.00 | 33 | 1011.1 |
| 20260509233039 | 78 | 61 | 4.3 | 10.4 | 0.00 | 0.00 | 0.00 | 33 | 1011.2 |
| 20260509232523 | 78 | 67 | 6.1 | 13.0 | 0.00 | 0.00 | 0.00 | 33 | 1011.2 |
| 20260509232020 | 78 | 50 | 6.1 | 13.0 | 0.00 | 0.00 | 0.00 | 34 | 1011.1 |
| 20260509231546 | 77 | 57 | 3.5 | 18.2 | 0.00 | 0.00 | 0.00 | 34 | 1011.1 |
| 20260509231022 | 77 | 52 | 7.8 | 20.0 | 0.00 | 0.00 | 0.00 | 33 | 1011.1 |
| 20260509230523 | 77 | 59 | 13.9 | 20.0 | 0.00 | 0.00 | 0.00 | 33 | 1011.0 |
| 20260509230039 | 78 | 49 | 12.2 | 15.6 | 0.00 | 0.00 | 0.00 | 34 | 1011.0 |